San Antonio, TX

12:44 PM CDT on June 26, 2017 (GMT -0500)
San Antonio International

Weather History for KSAT - May, 2013

Change the Weather History Date:

Wednesday, May 29, 2013

  Actual Average Record
Temperature  
Mean Temperature 81 °F 80 °F  
Max Temperature 86 °F 90 °F 102 °F (1927)
Min Temperature 75 °F 70 °F 57 °F (1888)
Degree Days  
Heating Degree Days 0 0  
Month to date heating degree days 15 0  
Since 1 July heating degree days 1206 1494  
Cooling Degree Days 16 15  
Month to date cooling degree days 317 340  
Year to date cooling degree days 578 599  
Growing Degree Days 30 (Base 50)    
Moisture  
Dew Point 71 °F    
Average Humidity 76    
Maximum Humidity 87    
Minimum Humidity 65    
Precipitation  
Precipitation T in 0.15 in 3.54 in (1987)
Month to date precipitation 13.19 3.70  
Year to date precipitation 19.84 11.66  
Snow  
Snow 0.00 in - - ()
Month to date snowfall 0.0  
Since 1 July snowfall T  
Snow Depth 0.00 in    
Sea Level Pressure  
Sea Level Pressure 29.76 in    
Wind  
Wind Speed 17 mph (SSE)    
Max Wind Speed 31 mph    
Max Gust Speed 38 mph    
Visibility 10 miles    
Events Rain    
T = Trace of Precipitation, MM = Missing Value Source: NWS Daily Summary

Daily Weather History Graph

Daily Weather History Graph

Search for Another Location

Airport or City:

Trip Planner

Search our weather history database for the weather conditions in past years. The results will help you decide how hot, cold, wet, or windy it might be!

Date:

Astronomy

May. 29, 2013 Rise Set
Actual Time 6:35 AM CDT 8:27 PM CDT
Civil Twilight 6:08 AM CDT 8:54 PM CDT
Nautical Twilight 5:35 AM CDT 9:27 PM CDT
Astronomical Twilight 5:01 AM CDT 10:01 PM CDT
Moon 12:01 AM CDT (5/29) 11:23 AM CDT (5/29)
Length of Visible Light 14h 46m
Length of Day
13h 52m
Waning Gibbous, 73% of the Moon is Illuminated
May 29
Waning Gibbous
May 31
Last Quarter
Jun 8
New
Jun 16
First Quarter
Jun 23
Full

Hourly Weather History & Observations

Time (CDT) Temp. Heat Index Dew Point Humidity Pressure Visibility Wind Dir Wind Speed Gust Speed Precip Events Conditions
12:51 AM 77.0 °F - 69.1 °F 76% 29.84 in 10.0 mi SSE 13.8 mph - N/A   Overcast
1:47 AM 77.0 °F - 69.8 °F 78% 29.89 in 10.0 mi SSE 11.5 mph - N/A   Overcast
1:51 AM 77.0 °F - 69.1 °F 76% 29.83 in 10.0 mi SSE 12.7 mph - N/A   Overcast
2:24 AM 77.0 °F - 69.8 °F 78% 29.89 in 10.0 mi SE 10.4 mph - N/A   Overcast
2:51 AM 75.9 °F - 70.0 °F 82% 29.82 in 10.0 mi SE 13.8 mph - N/A   Overcast
3:48 AM 75.2 °F - 69.8 °F 83% 29.84 in 10.0 mi SSE 12.7 mph - N/A   Overcast
3:51 AM 75.9 °F - 70.0 °F 82% 29.78 in 10.0 mi SSE 13.8 mph - N/A   Overcast
4:24 AM 75.2 °F - 69.8 °F 83% 29.82 in 10.0 mi SSE 16.1 mph - N/A   Mostly Cloudy
4:43 AM 75.2 °F - 71.6 °F 89% 29.82 in 10.0 mi SSE 16.1 mph 24.2 mph N/A   Mostly Cloudy
4:51 AM 75.9 °F - 71.1 °F 85% 29.77 in 10.0 mi SSE 16.1 mph 24.2 mph N/A   Mostly Cloudy
5:36 AM 75.2 °F - 71.6 °F 89% 29.82 in 10.0 mi SSE 13.8 mph 21.9 mph N/A   Overcast
5:51 AM 75.9 °F - 71.1 °F 85% 29.75 in 10.0 mi SSE 15.0 mph 21.9 mph N/A   Overcast
6:42 AM 75.2 °F - 71.6 °F 89% 29.79 in 9.0 mi SSE 20.7 mph 29.9 mph N/A   Overcast
6:51 AM 75.9 °F - 72.0 °F 87% 29.72 in 9.0 mi SSE 20.7 mph 28.8 mph N/A   Overcast
7:51 AM 75.9 °F - 72.0 °F 87% 29.72 in 8.0 mi SSE 21.9 mph 26.5 mph N/A   Overcast
8:51 AM 77.0 °F - 71.1 °F 82% 29.74 in 8.0 mi South 10.4 mph 17.3 mph N/A   Overcast
9:09 AM 77.0 °F - 71.6 °F 83% 29.77 in 10.0 mi SSE 19.6 mph 28.8 mph N/A   Overcast
9:51 AM 78.1 °F - 71.1 °F 79% 29.73 in 10.0 mi SSE 19.6 mph 25.3 mph N/A   Overcast
9:54 AM 78.8 °F - 71.6 °F 78% 29.78 in 10.0 mi SSE 16.1 mph 25.3 mph N/A   Overcast
10:51 AM 79.0 °F - 72.0 °F 79% 29.74 in 10.0 mi SSE 13.8 mph - 0.00 in Rain Light Rain
11:21 AM 80.6 °F 84.6 °F 71.6 °F 74% 29.80 in 10.0 mi South 13.8 mph - 0.00 in   Overcast
11:51 AM 80.1 °F 83.6 °F 71.1 °F 74% 29.75 in 10.0 mi SSE 13.8 mph 19.6 mph 0.00 in   Overcast
12:51 PM 82.0 °F 86.3 °F 71.1 °F 69% 29.74 in 10.0 mi SSE 17.3 mph - 0.00 in   Overcast
1:36 PM 82.4 °F 87.2 °F 71.6 °F 70% 29.79 in 10.0 mi SSE 15.0 mph - 0.00 in   Overcast
1:51 PM 82.9 °F 88.0 °F 72.0 °F 69% 29.73 in 10.0 mi SSE 16.1 mph 21.9 mph 0.00 in   Mostly Cloudy
2:51 PM 84.9 °F 90.1 °F 71.1 °F 63% 29.71 in 10.0 mi SSE 17.3 mph - N/A   Mostly Cloudy
3:51 PM 84.9 °F 90.7 °F 72.0 °F 65% 29.70 in 10.0 mi SE 19.6 mph 24.2 mph 0.00 in   Mostly Cloudy
4:51 PM 82.0 °F 87.4 °F 73.0 °F 74% 29.68 in 10.0 mi SSE 17.3 mph 29.9 mph 0.00 in Rain Light Rain
5:51 PM 82.9 °F 88.0 °F 72.0 °F 69% 29.67 in 10.0 mi SE 20.7 mph 28.8 mph 0.00 in   Mostly Cloudy
6:51 PM 82.0 °F 86.7 °F 72.0 °F 71% 29.67 in 10.0 mi SE 18.4 mph 24.2 mph N/A   Mostly Cloudy
7:19 PM 82.4 °F 87.2 °F 71.6 °F 70% 29.73 in 10.0 mi SSE 18.4 mph 25.3 mph N/A   Mostly Cloudy
7:51 PM 82.0 °F 86.7 °F 72.0 °F 71% 29.68 in 10.0 mi SE 23.0 mph - N/A   Mostly Cloudy
8:51 PM 80.1 °F 83.6 °F 71.1 °F 74% 29.69 in 10.0 mi SE 18.4 mph 26.5 mph N/A   Mostly Cloudy
9:51 PM 80.1 °F 83.6 °F 71.1 °F 74% 29.72 in 10.0 mi SE 24.2 mph 29.9 mph N/A   Overcast
10:51 PM 78.1 °F - 71.1 °F 79% 29.73 in 10.0 mi SE 18.4 mph 29.9 mph N/A   Mostly Cloudy
11:51 PM 77.0 °F - 72.0 °F 84% 29.74 in 10.0 mi SE 19.6 mph 28.8 mph N/A   Mostly Cloudy